SCP
0 -0 -0 -0 -0 -0 -0 -0 -0 -0 -0 -0 0 -0 -0 -0 -0 0 0 0 -0 -0 -0 0 0 0 0 0 0 0 0 0 0 0 0 0 0 0 0 0 0 0 0 1 0
-0 -0 -0 -0 -0 -0 -0 -0 -0 -0 -0 -0 -0 -0 -0 -0 -0 0 0 0 0 -0 0 0 0 0 0 0 0 0 0 0 0 0 0 0 0 0 0 0 0 0 0 1 0
-0 -0 -0 -0 -0 -0 -0 -0 -0 -0 -0 -0 -0 -0 -0 -0 0 0 0 0 0 0 0 0 0 0 0 0 0 0 0 0 0 0 0 0 0 0 0 0 0 0 0 0 0
-0 -0 -0 -0 -0 -0 -0 -0 -0 -0 -0 0 0 0 -0 0 0 0 0 0 -0 0 0 0 0 0 0 0 0 0 0 0 0 0 0 0 0 0 0 0 0 0 0 0 0
-0 -0 -0 -0 -0 -0 -0 -0 -0 -0 -0 -0 0 -0 0 0 0 0 0 0 0 0 0 0 0 0 0 0 0 0 0 0 0 0 0 0 0 0 0 0 0 0 0 0 0
-0 -0 -0 -0 -0 -0 -0 -0 -0 -0 -0 0 -0 -0 0 0 0 0 0 0 0 0 0 0 0 0 0 0 0 0 0 0 0 0 0 0 0 0 0 0 0 0 0 0 0
-0 -0 -0 -0 -0 -0 -0 -0 -0 -0 0 -0 -0 -0 0 0 0 0 0 0 0 0 0 0 0 0 0 0 0 0 0 0 0 0 0 0 0 0 0 0 0 0 0 0 0
-0 -0 -0 -0 -0 -0 -0 -0 0 0 0 -0 -0 0 0 0 0 0 0 0 0 0 0 0 0 0 0 0 0 0 0 0 0 0 0 0 0 0 0 0 0 0 0 0 0
-0 -0 -0 -0 -0 -0 -0 0 0 0 0 -0 0 0 0 0 0 0 0 0 0 0 0 0 0 0 0 0 0 0 0 0 0 0 0 0 -0 0 0 0 0 0 0 0 0
-0 -0 -0 -0 -0 -0 -0 0 0 -0 -0 -0 -0 0 0 0 0 0 0 0 0 0 0 0 0 0 0 0 0 0 0 0 -0 0 0 0 0 0 0 0 0 0 0 0 0
-0 -0 -0 -0 -0 -0 0 0 0 0 0 0 0 0 0 0 0 0 0 0 0 0 0 0 0 0 0 0 0 0 0 0 -0 0 0 0 0 0 0 0 0 0 0 0 0
0 -0 -0 -0 -0 0 0 0 0 -0 0 0 0 0 0 0 0 0 0 0 0 0 0 0 0 0 0 0 0 0 0 0 0 0 0 -0 0 0 0 0 0 0 0 0 0
0 0 -0 -0 -0 -0 -0 -0 0 0 0 0 0 0 0 0 0 0 -0 0 0 0 0 0 0 0 0 0 0 0 0 0 0 0 0 -0 0 0 0 0 0 0 0 0 0
0 0 0 -0 0 0 0 0 0 -0 0 0 0 0 0 0 0 0 0 0 0 0 0 0 0 0 0 0 0 0 0 0 0 0 0 0 0 0 0 0 0 0 0 0 0
0 0 0 0 0 0 0 -0 0 -0 0 0 0 0 0 0 0 0 0 0 0 0 0 0 0 0 0 0 0 0 0 0 0 0 0 0 0 0 -0 -0 -0 -0 -0 0 0
0 0 0 0 0 0 0 0 0 0 0 0 0 0 0 0 0 0 0 0 0 0 0 0 0 0 0 0 0 0 0 0 0 0 0 0 0 0 0 0 -0 -0 0 0 0
0 0 0 0 0 0 0 0 0 0 0 0 0 0 0 0 0 0 0 0 0 0 0 0 0 0 0 0 0 0 0 0 0 0 0 0 0 0 0 0 0 0 -0 -0 0
0 0 0 0 0 0 0 0 0 0 0 0 0 0 0 0 0 0 0 0 0 0 0 0 0 0 0 0 0 0 0 0 0 0 0 0 0 0 0 0 0 -0 -0 -0 0
0 0 0 0 0 0 0 0 0 0 0 0 0 0 0 0 0 0 0 0 0 0 0 0 0 0 0 0 0 0 0 0 0 0 0 0 0 0 0 0 0 -0 0 -0 -0
0 0 0 0 0 0 0 0 0 0 0 0 0 0 0 0 0 0 0 0 0 0 0 0 0 0 0 0 0 0 0 0 0 0 0 0 0 0 0 0 0 -0 -0 -0 -0
0 0 0 0 0 0 0 0 0 0 0 0 0 0 0 0 0 0 0 0 0 0 0 0 0 0 0 0 0 0 0 0 0 0 0 0 0 0 0 0 0 0 0 0 0
0 0 0 0 0 0 0 0 0 0 0 0 0 0 0 0 0 0 0 0 0 0 0 0 0 0 0 0 0 0 0 0 0 0 0 0 0 0 0 0 0 0 0 0 0
0 0 0 0 0 0 0 0 0 0 0 0 0 0 0 0 0 0 0 0 0 0 0 0 0 0 0 0 0 0 0 0 0 0 0 0 0 0 0 0 0 0 0 -0 -0
0 0 0 0 0 0 0 0 0 0 0 0 0 0 0 0 0 0 0 0 0 0 0 0 0 0 0 0 0 0 0 0 0 0 0 0 0 0 0 0 0 0 0 0 0
0 0 0 0 0 0 0 0 0 0 0 0 0 0 0 0 0 0 0 0 0 0 0 0 0 0 0 0 0 0 -0 0 0 0 0 0 0 0 0 0 0 0 0 0 0
0 0 0 0 0 0 0 0 0 0 0 0 0 0 0 0 0 0 0 0 0 0 0 0 0 0 0 0 0 0 0 -0 0 0 -0 0 0 0 0 0 0 0 0 0 0
0 0 0 0 0 0 0 0 0 0 0 0 0 0 0 0 0 0 0 0 0 0 0 0 0 0 0 0 -0 0 0 -0 0 0 0 0 0 -0 -0 -0 -0 -0 -0 -0 -0
Wind_Speed_500mb
7 9 11 13 14 15 17 18 18 16 16 12 6 4 4 14 25 23 15 20 22 21 20 14 12 8 10 6 5 7 11 17 22 18 19 11 13 9 6 15 7 10 8 2 18
9 11 13 15 15 16 17 16 15 14 12 10 3 2 2 6 15 21 22 21 22 23 18 15 9 4 5 5 4 13 10 11 10 19 20 23 27 28 19 24 22 16 11 4 23
10 11 14 16 16 16 15 14 12 11 9 3 5 9 7 16 4 13 19 19 21 22 19 15 10 4 5 3 2 4 10 7 21 24 28 32 33 33 34 34 38 30 24 14 26
10 12 14 16 17 16 16 13 10 8 2 4 8 10 15 7 3 9 13 15 17 17 22 14 10 1 3 1 4 12 11 15 15 17 19 29 33 32 34 39 40 42 37 25 30
10 12 16 17 18 18 16 12 8 5 2 8 7 5 8 9 8 8 9 11 13 16 18 16 13 4 2 5 7 11 12 15 24 29 33 31 31 35 36 36 37 36 33 30 34
12 17 19 20 20 16 14 11 7 4 7 11 8 6 4 6 5 6 8 11 14 14 12 11 9 6 2 5 9 13 24 31 20 21 18 20 25 8 15 11 15 25 32 36 39
15 17 20 22 21 18 16 11 4 7 12 14 14 7 4 2 2 6 8 11 14 14 8 11 7 7 7 6 7 15 17 20 2 13 18 8 24 20 12 15 16 19 19 20 30
14 17 21 23 18 20 17 7 7 13 14 12 12 6 1 0 2 8 11 14 18 11 15 7 7 3 7 12 6 9 10 16 15 10 2 9 26 11 16 16 24 30 30 20 18
12 17 21 23 19 21 15 4 10 11 13 8 12 6 3 3 7 13 14 13 16 14 10 10 2 4 7 10 4 1 18 26 19 14 11 13 27 18 33 31 31 32 33 25 21
11 16 20 22 19 19 9 5 15 10 14 9 8 4 1 6 11 10 17 16 6 10 1 5 3 7 1 15 15 24 25 19 24 16 25 29 31 29 36 37 33 33 32 26 24
11 15 18 17 17 17 5 12 6 4 7 3 10 4 6 10 3 10 23 15 7 3 11 5 6 12 17 13 19 23 24 26 23 16 21 17 27 12 28 23 23 20 23 22 22
12 14 17 14 12 14 7 5 8 11 8 7 6 2 5 13 3 11 24 11 7 9 13 7 5 11 17 14 19 21 21 23 7 10 9 30 9 8 22 21 23 31 27 23 23
13 13 15 13 5 13 13 3 13 15 4 4 2 2 5 10 5 11 21 14 8 5 13 9 8 15 17 22 27 19 19 26 21 21 6 27 13 7 34 33 38 33 29 25 24
16 12 11 11 2 14 12 5 15 11 9 7 3 3 6 8 3 13 23 5 4 8 11 6 4 11 19 21 21 18 28 21 10 9 14 22 7 9 40 39 40 44 43 36 28
18 15 11 4 2 10 7 7 15 4 7 7 4 2 5 4 7 6 16 6 9 10 8 9 10 15 16 21 17 19 25 7 4 5 11 29 8 21 42 40 52 55 54 40 33
20 17 13 8 3 9 8 10 11 8 7 9 3 3 5 9 4 14 8 14 2 5 3 7 6 5 9 29 9 32 11 6 5 4 5 14 10 19 25 36 43 54 43 37 32
23 20 15 11 7 6 5 12 8 10 4 9 4 4 1 5 4 10 7 14 12 10 13 12 3 2 8 20 4 33 23 5 3 7 10 15 12 11 31 41 32 32 41 37 30
26 23 19 15 11 4 6 8 12 4 6 5 4 5 4 5 3 6 1 3 8 9 6 11 5 12 19 8 13 15 12 6 5 11 11 17 20 12 28 33 42 44 41 40 37
26 23 22 19 15 6 6 10 4 7 9 14 6 7 6 4 4 2 4 3 5 12 13 10 4 5 3 6 8 9 10 5 1 4 8 5 24 8 30 32 46 51 55 54 44
26 19 24 19 18 8 9 5 7 8 12 7 11 5 7 6 5 2 2 4 4 4 5 4 11 3 4 6 5 9 2 3 4 11 10 10 21 15 31 33 33 42 51 51 43
19 9 15 26 21 10 13 8 8 13 12 10 10 9 6 6 4 4 4 6 5 4 1 1 5 3 6 4 8 1 4 5 3 5 8 11 12 10 15 21 26 31 37 44 44
19 9 18 30 15 7 14 9 12 17 9 6 7 6 10 13 9 8 7 5 6 2 2 4 6 9 7 7 6 5 4 7 7 4 2 6 6 9 10 13 19 22 27 30 39
17 14 22 38 13 14 6 6 13 14 13 14 14 7 5 12 8 9 9 7 10 4 0 6 4 10 8 9 6 6 2 2 5 5 4 7 8 7 7 9 13 16 19 24 29
25 11 12 25 13 17 16 12 14 12 13 10 9 12 9 10 8 9 11 7 7 4 2 9 5 13 13 15 9 15 9 15 9 8 6 6 10 4 5 5 11 10 14 19 25
39 18 25 15 23 21 22 20 23 15 7 16 5 14 14 9 8 9 9 8 5 4 4 6 8 8 21 30 27 30 29 23 22 18 10 5 8 4 5 8 12 10 10 17 23
35 20 17 23 20 40 25 24 29 15 24 16 15 26 20 13 14 14 14 10 7 10 8 4 3 6 12 9 9 17 23 23 22 20 23 20 17 6 13 13 13 15 16 18 19
71 60 33 27 20 23 32 38 31 25 23 16 33 15 24 29 11 11 3 8 11 11 12 6 4 6 6 7 26 17 8 20 13 13 9 9 6 19 15 17 20 20 21 23 23
Wind_Direction_500mb
349 336 320 311 315 318 323 335 343 351 1 13 68 148 118 63 52 42 37 37 34 30 31 26 30 71 124 136 144 186 241 250 255 258 257 228 249 224 263 265 273 276 289 356 172
336 333 317 314 323 324 323 325 335 349 7 21 46 46 228 161 55 35 30 30 25 24 29 33 24 84 109 136 175 230 244 270 287 278 272 272 272 269 276 259 264 262 271 214 178
327 321 319 318 326 319 315 319 333 348 15 41 62 27 4 189 54 16 26 29 28 32 30 28 21 85 80 133 168 207 263 305 267 270 274 274 272 272 270 264 267 270 284 227 190
322 327 320 325 327 322 319 322 326 350 27 115 90 60 59 146 44 10 29 25 24 25 23 16 13 93 154 219 220 258 252 272 283 278 279 275 285 272 267 271 265 265 269 248 220
329 340 335 336 331 329 324 323 330 326 159 144 125 137 82 83 75 38 15 9 14 14 11 8 5 340 315 321 272 234 309 287 279 283 278 275 270 273 276 270 261 256 258 243 235
349 350 338 337 337 339 336 328 312 265 174 167 153 149 166 99 64 26 3 352 357 6 0 9 346 330 318 307 287 322 305 293 289 291 276 275 280 252 255 284 265 246 258 253 243
357 342 344 340 341 346 339 328 284 173 162 171 164 117 99 100 329 340 342 334 350 355 350 351 353 322 313 297 304 295 292 302 291 297 292 271 256 234 251 285 269 255 266 277 255
345 345 349 342 347 348 346 349 139 150 157 158 177 180 105 108 320 343 338 328 335 348 352 1 345 294 317 308 259 306 265 335 347 325 340 270 283 286 292 295 289 284 274 277 286
329 348 348 352 358 352 350 87 142 157 165 165 175 172 158 278 322 313 327 330 330 343 6 359 25 302 300 330 276 240 328 329 334 314 316 275 297 300 310 301 291 283 273 272 277
325 347 350 355 357 357 2 112 148 118 140 114 150 201 266 298 311 345 339 334 319 333 331 352 281 266 281 351 350 320 321 320 320 323 314 298 291 314 325 318 300 283 269 271 274
322 346 350 359 360 10 72 118 131 83 178 178 132 101 7 342 106 358 355 338 343 19 360 15 294 11 350 338 307 304 306 313 329 339 319 336 318 355 356 10 2 355 303 283 270
314 340 347 359 13 14 40 164 189 158 129 131 131 70 352 0 275 6 1 345 336 340 330 217 343 348 317 305 308 313 310 342 339 6 295 344 66 29 18 20 4 345 333 311 295
293 326 342 355 1 17 34 120 161 148 178 164 248 254 327 346 324 348 4 335 326 310 349 300 2 325 311 324 335 342 335 334 308 319 218 344 189 0 21 7 355 354 338 320 300
283 301 334 346 12 11 38 70 156 148 202 146 182 224 317 309 154 355 3 343 270 321 333 283 352 336 320 326 343 317 354 305 280 300 15 15 327 30 357 351 353 348 342 331 309
274 289 314 348 340 21 6 107 152 148 246 120 138 238 8 16 334 12 339 335 315 324 279 43 331 341 322 342 333 315 336 297 245 280 275 17 284 23 3 348 340 339 333 331 316
259 270 286 299 293 10 25 125 136 222 221 159 152 334 204 38 53 333 358 9 305 295 254 296 312 275 317 316 298 316 325 259 238 274 325 13 336 4 353 331 325 326 346 339 335
253 260 266 270 249 351 73 137 202 242 127 167 154 33 72 22 99 10 20 41 26 331 11 325 130 298 322 320 181 358 356 338 301 359 356 1 310 34 347 331 323 349 358 356 356
252 256 258 252 236 282 139 210 231 86 181 103 145 135 184 341 104 14 329 64 70 359 320 351 165 8 358 6 320 341 2 30 348 347 323 331 351 6 342 339 11 12 12 13 12
253 256 258 246 229 227 209 223 274 180 140 160 147 191 159 187 306 318 36 40 31 16 5 338 297 336 5 334 332 8 12 7 290 179 272 4 26 49 342 8 11 10 10 17 20
250 259 247 227 207 193 242 251 191 164 132 170 206 233 188 172 206 4 199 125 162 57 328 61 289 179 344 240 93 1 55 258 76 1 346 21 39 30 337 356 4 11 10 16 26
235 225 232 201 183 194 231 223 185 181 157 178 179 163 200 191 205 169 149 161 203 111 116 235 270 126 252 15 337 150 43 41 295 335 335 321 55 7 332 348 357 13 18 19 36
202 217 198 177 185 207 218 195 179 164 172 144 147 158 196 177 186 198 205 250 169 186 329 90 309 283 305 355 264 306 36 16 330 8 298 309 62 19 1 350 0 17 21 34 52
189 186 191 180 202 207 183 195 193 157 182 170 172 185 169 189 208 195 205 136 149 227 100 147 180 292 176 173 163 279 326 27 327 274 258 317 41 49 24 11 38 33 37 42 56
179 180 177 198 244 223 183 194 191 194 162 153 141 143 152 196 225 181 196 170 175 169 133 186 230 259 289 323 318 278 251 286 266 271 352 259 335 62 75 69 61 46 65 69 73
196 213 180 186 213 207 198 188 182 176 189 167 158 197 167 172 195 213 197 175 158 175 155 238 260 255 269 278 279 270 270 271 239 260 270 61 277 338 120 135 111 102 90 97 94
197 183 183 168 172 198 198 200 193 170 166 192 216 193 183 183 204 187 180 201 196 159 172 189 256 287 285 260 241 265 258 259 248 255 256 268 269 169 136 145 149 136 131 119 112
208 210 189 179 163 171 208 204 196 164 200 191 203 150 196 218 169 89 191 151 169 172 170 216 254 294 281 281 300 261 272 209 199 217 229 233 110 165 171 176 172 162 156 147 141
Wind_Speed_850mb
7 9 11 13 14 15 17 18 18 16 16 12 6 4 4 14 25 23 15 20 22 21 20 14 12 8 10 6 5 7 11 17 22 18 19 11 13 9 6 15 7 10 8 2 18
9 11 13 15 15 16 17 16 15 14 12 10 3 2 2 6 15 21 22 21 22 23 18 15 9 4 5 5 4 13 10 11 10 19 20 23 27 28 19 24 22 16 11 4 23
10 11 14 16 16 16 15 14 12 11 9 3 5 9 7 16 4 13 19 19 21 22 19 15 10 4 5 3 2 4 10 7 21 24 28 32 33 33 34 34 38 30 24 14 26
10 12 14 16 17 16 16 13 10 8 2 4 8 10 15 7 3 9 13 15 17 17 22 14 10 1 3 1 4 12 11 15 15 17 19 29 33 32 34 39 40 42 37 25 30
10 12 16 17 18 18 16 12 8 5 2 8 7 5 8 9 8 8 9 11 13 16 18 16 13 4 2 5 7 11 12 15 24 29 33 31 31 35 36 36 37 36 33 30 34
12 17 19 20 20 16 14 11 7 4 7 11 8 6 4 6 5 6 8 11 14 14 12 11 9 6 2 5 9 13 24 31 20 21 18 20 25 8 15 11 15 25 32 36 39
15 17 20 22 21 18 16 11 4 7 12 14 14 7 4 2 2 6 8 11 14 14 8 11 7 7 7 6 7 15 17 20 2 13 18 8 24 20 12 15 16 19 19 20 30
14 17 21 23 18 20 17 7 7 13 14 12 12 6 1 0 2 8 11 14 18 11 15 7 7 3 7 12 6 9 10 16 15 10 2 9 26 11 16 16 24 30 30 20 18
12 17 21 23 19 21 15 4 10 11 13 8 12 6 3 3 7 13 14 13 16 14 10 10 2 4 7 10 4 1 18 26 19 14 11 13 27 18 33 31 31 32 33 25 21
11 16 20 22 19 19 9 5 15 10 14 9 8 4 1 6 11 10 17 16 6 10 1 5 3 7 1 15 15 24 25 19 24 16 25 29 31 29 36 37 33 33 32 26 24
11 15 18 17 17 17 5 12 6 4 7 3 10 4 6 10 3 10 23 15 7 3 11 5 6 12 17 13 19 23 24 26 23 16 21 17 27 12 28 23 23 20 23 22 22
12 14 17 14 12 14 7 5 8 11 8 7 6 2 5 13 3 11 24 11 7 9 13 7 5 11 17 14 19 21 21 23 7 10 9 30 9 8 22 21 23 31 27 23 23
13 13 15 13 5 13 13 3 13 15 4 4 2 2 5 10 5 11 21 14 8 5 13 9 8 15 17 22 27 19 19 26 21 21 6 27 13 7 34 33 38 33 29 25 24
16 12 11 11 2 14 12 5 15 11 9 7 3 3 6 8 3 13 23 5 4 8 11 6 4 11 19 21 21 18 28 21 10 9 14 22 7 9 40 39 40 44 43 36 28
18 15 11 4 2 10 7 7 15 4 7 7 4 2 5 4 7 6 16 6 9 10 8 9 10 15 16 21 17 19 25 7 4 5 11 29 8 21 42 40 52 55 54 40 33
20 17 13 8 3 9 8 10 11 8 7 9 3 3 5 9 4 14 8 14 2 5 3 7 6 5 9 29 9 32 11 6 5 4 5 14 10 19 25 36 43 54 43 37 32
23 20 15 11 7 6 5 12 8 10 4 9 4 4 1 5 4 10 7 14 12 10 13 12 3 2 8 20 4 33 23 5 3 7 10 15 12 11 31 41 32 32 41 37 30
26 23 19 15 11 4 6 8 12 4 6 5 4 5 4 5 3 6 1 3 8 9 6 11 5 12 19 8 13 15 12 6 5 11 11 17 20 12 28 33 42 44 41 40 37
26 23 22 19 15 6 6 10 4 7 9 14 6 7 6 4 4 2 4 3 5 12 13 10 4 5 3 6 8 9 10 5 1 4 8 5 24 8 30 32 46 51 55 54 44
26 19 24 19 18 8 9 5 7 8 12 7 11 5 7 6 5 2 2 4 4 4 5 4 11 3 4 6 5 9 2 3 4 11 10 10 21 15 31 33 33 42 51 51 43
19 9 15 26 21 10 13 8 8 13 12 10 10 9 6 6 4 4 4 6 5 4 1 1 5 3 6 4 8 1 4 5 3 5 8 11 12 10 15 21 26 31 37 44 44
19 9 18 30 15 7 14 9 12 17 9 6 7 6 10 13 9 8 7 5 6 2 2 4 6 9 7 7 6 5 4 7 7 4 2 6 6 9 10 13 19 22 27 30 39
17 14 22 38 13 14 6 6 13 14 13 14 14 7 5 12 8 9 9 7 10 4 0 6 4 10 8 9 6 6 2 2 5 5 4 7 8 7 7 9 13 16 19 24 29
25 11 12 25 13 17 16 12 14 12 13 10 9 12 9 10 8 9 11 7 7 4 2 9 5 13 13 15 9 15 9 15 9 8 6 6 10 4 5 5 11 10 14 19 25
39 18 25 15 23 21 22 20 23 15 7 16 5 14 14 9 8 9 9 8 5 4 4 6 8 8 21 30 27 30 29 23 22 18 10 5 8 4 5 8 12 10 10 17 23
35 20 17 23 20 40 25 24 29 15 24 16 15 26 20 13 14 14 14 10 7 10 8 4 3 6 12 9 9 17 23 23 22 20 23 20 17 6 13 13 13 15 16 18 19
71 60 33 27 20 23 32 38 31 25 23 16 33 15 24 29 11 11 3 8 11 11 12 6 4 6 6 7 26 17 8 20 13 13 9 9 6 19 15 17 20 20 21 23 23
Wind_Direction_850mb
349 336 320 311 315 318 323 335 343 351 1 13 68 148 118 63 52 42 37 37 34 30 31 26 30 71 124 136 144 186 241 250 255 258 257 228 249 224 263 265 273 276 289 356 172
336 333 317 314 323 324 323 325 335 349 7 21 46 46 228 161 55 35 30 30 25 24 29 33 24 84 109 136 175 230 244 270 287 278 272 272 272 269 276 259 264 262 271 214 178
327 321 319 318 326 319 315 319 333 348 15 41 62 27 4 189 54 16 26 29 28 32 30 28 21 85 80 133 168 207 263 305 267 270 274 274 272 272 270 264 267 270 284 227 190
322 327 320 325 327 322 319 322 326 350 27 115 90 60 59 146 44 10 29 25 24 25 23 16 13 93 154 219 220 258 252 272 283 278 279 275 285 272 267 271 265 265 269 248 220
329 340 335 336 331 329 324 323 330 326 159 144 125 137 82 83 75 38 15 9 14 14 11 8 5 340 315 321 272 234 309 287 279 283 278 275 270 273 276 270 261 256 258 243 235
349 350 338 337 337 339 336 328 312 265 174 167 153 149 166 99 64 26 3 352 357 6 0 9 346 330 318 307 287 322 305 293 289 291 276 275 280 252 255 284 265 246 258 253 243
357 342 344 340 341 346 339 328 284 173 162 171 164 117 99 100 329 340 342 334 350 355 350 351 353 322 313 297 304 295 292 302 291 297 292 271 256 234 251 285 269 255 266 277 255
345 345 349 342 347 348 346 349 139 150 157 158 177 180 105 108 320 343 338 328 335 348 352 1 345 294 317 308 259 306 265 335 347 325 340 270 283 286 292 295 289 284 274 277 286
329 348 348 352 358 352 350 87 142 157 165 165 175 172 158 278 322 313 327 330 330 343 6 359 25 302 300 330 276 240 328 329 334 314 316 275 297 300 310 301 291 283 273 272 277
325 347 350 355 357 357 2 112 148 118 140 114 150 201 266 298 311 345 339 334 319 333 331 352 281 266 281 351 350 320 321 320 320 323 314 298 291 314 325 318 300 283 269 271 274
322 346 350 359 360 10 72 118 131 83 178 178 132 101 7 342 106 358 355 338 343 19 360 15 294 11 350 338 307 304 306 313 329 339 319 336 318 355 356 10 2 355 303 283 270
314 340 347 359 13 14 40 164 189 158 129 131 131 70 352 0 275 6 1 345 336 340 330 217 343 348 317 305 308 313 310 342 339 6 295 344 66 29 18 20 4 345 333 311 295
293 326 342 355 1 17 34 120 161 148 178 164 248 254 327 346 324 348 4 335 326 310 349 300 2 325 311 324 335 342 335 334 308 319 218 344 189 0 21 7 355 354 338 320 300
283 301 334 346 12 11 38 70 156 148 202 146 182 224 317 309 154 355 3 343 270 321 333 283 352 336 320 326 343 317 354 305 280 300 15 15 327 30 357 351 353 348 342 331 309
274 289 314 348 340 21 6 107 152 148 246 120 138 238 8 16 334 12 339 335 315 324 279 43 331 341 322 342 333 315 336 297 245 280 275 17 284 23 3 348 340 339 333 331 316
259 270 286 299 293 10 25 125 136 222 221 159 152 334 204 38 53 333 358 9 305 295 254 296 312 275 317 316 298 316 325 259 238 274 325 13 336 4 353 331 325 326 346 339 335
253 260 266 270 249 351 73 137 202 242 127 167 154 33 72 22 99 10 20 41 26 331 11 325 130 298 322 320 181 358 356 338 301 359 356 1 310 34 347 331 323 349 358 356 356
252 256 258 252 236 282 139 210 231 86 181 103 145 135 184 341 104 14 329 64 70 359 320 351 165 8 358 6 320 341 2 30 348 347 323 331 351 6 342 339 11 12 12 13 12
253 256 258 246 229 227 209 223 274 180 140 160 147 191 159 187 306 318 36 40 31 16 5 338 297 336 5 334 332 8 12 7 290 179 272 4 26 49 342 8 11 10 10 17 20
250 259 247 227 207 193 242 251 191 164 132 170 206 233 188 172 206 4 199 125 162 57 328 61 289 179 344 240 93 1 55 258 76 1 346 21 39 30 337 356 4 11 10 16 26
235 225 232 201 183 194 231 223 185 181 157 178 179 163 200 191 205 169 149 161 203 111 116 235 270 126 252 15 337 150 43 41 295 335 335 321 55 7 332 348 357 13 18 19 36
202 217 198 177 185 207 218 195 179 164 172 144 147 158 196 177 186 198 205 250 169 186 329 90 309 283 305 355 264 306 36 16 330 8 298 309 62 19 1 350 0 17 21 34 52
189 186 191 180 202 207 183 195 193 157 182 170 172 185 169 189 208 195 205 136 149 227 100 147 180 292 176 173 163 279 326 27 327 274 258 317 41 49 24 11 38 33 37 42 56
179 180 177 198 244 223 183 194 191 194 162 153 141 143 152 196 225 181 196 170 175 169 133 186 230 259 289 323 318 278 251 286 266 271 352 259 335 62 75 69 61 46 65 69 73
196 213 180 186 213 207 198 188 182 176 189 167 158 197 167 172 195 213 197 175 158 175 155 238 260 255 269 278 279 270 270 271 239 260 270 61 277 338 120 135 111 102 90 97 94
197 183 183 168 172 198 198 200 193 170 166 192 216 193 183 183 204 187 180 201 196 159 172 189 256 287 285 260 241 265 258 259 248 255 256 268 269 169 136 145 149 136 131 119 112
208 210 189 179 163 171 208 204 196 164 200 191 203 150 196 218 169 89 191 151 169 172 170 216 254 294 281 281 300 261 272 209 199 217 229 233 110 165 171 176 172 162 156 147 141